Hourly Weather Natal

Today, 13 July, Monday

Time Temperature Precipitation Wind Pressure Humidity
00:00 +25°C° 0 mm 4 mps 761 mmHg 85%
01:00 +25°C° 0 mm 4 mps 761 mmHg 86%
02:00 +25°C° 0 mm 4 mps 760 mmHg 86%
03:00 +23°C° 0 mm 4 mps 760 mmHg 86%
04:00 +23°C° 0 mm 4 mps 759 mmHg 86%
05:00 +23°C° 0 mm 4 mps 759 mmHg 86%
06:00 +23°C° 0 mm 4 mps 760 mmHg 87%
07:00 +23°C° 0 mm 4 mps 760 mmHg 87%
08:00 +25°C° 0 mm 5 mps 761 mmHg 81%
09:00 +27°C° 0 mm 5 mps 761 mmHg 74%
10:00 +29°C° 0 mm 5 mps 761 mmHg 69%
11:00 +29°C° 0 mm 5 mps 761 mmHg 66%
12:00 +30°C° 0 mm 6 mps 761 mmHg 63%
13:00 +30°C° 0 mm 6 mps 760 mmHg 60%
14:00 +30°C° 0 mm 6 mps 760 mmHg 60%
15:00 +30°C° 0 mm 6 mps 760 mmHg 60%
16:00 +30°C° 0 mm 6 mps 759 mmHg 61%
17:00 +28°C° 0 mm 5 mps 760 mmHg 66%
18:00 +27°C° 0 mm 5 mps 760 mmHg 71%
19:00 +26°C° 0 mm 4 mps 760 mmHg 76%
20:00 +26°C° 0 mm 4 mps 761 mmHg 77%
21:00 +26°C° 0 mm 4 mps 761 mmHg 77%
22:00 +25°C° 0 mm 4 mps 762 mmHg 78%
23:00 +25°C° 0 mm 4 mps 761 mmHg 80%

Tomorrow, 14 July, Tuesday

Time Temperature Precipitation Wind Pressure Humidity
00:00 +25°C° 0 mm 4 mps 761 mmHg 82%
01:00 +23°C° 0 mm 4 mps 761 mmHg 83%
02:00 +23°C° 0 mm 4 mps 761 mmHg 85%
03:00 +23°C° 0 mm 4 mps 760 mmHg 86%
04:00 +23°C° 0 mm 4 mps 760 mmHg 88%
05:00 +23°C° 0 mm 4 mps 760 mmHg 88%
06:00 +23°C° 0 mm 4 mps 760 mmHg 88%
07:00 +24°C° 0 mm 3 mps 760 mmHg 89%
08:00 +25°C° 0 mm 4 mps 761 mmHg 83%
09:00 +27°C° 0 mm 4 mps 761 mmHg 77%
10:00 +29°C° 0 mm 5 mps 761 mmHg 71%
11:00 +29°C° 0 mm 5 mps 761 mmHg 68%
12:00 +30°C° 0 mm 5 mps 761 mmHg 66%
13:00 +32°C° 0 mm 6 mps 760 mmHg 63%
14:00 +30°C° 0 mm 5 mps 760 mmHg 64%
15:00 +30°C° 0 mm 5 mps 759 mmHg 64%
16:00 +30°C° 0 mm 5 mps 759 mmHg 65%
17:00 +29°C° 0 mm 5 mps 759 mmHg 69%
18:00 +28°C° 0 mm 5 mps 759 mmHg 74%
19:00 +26°C° 0 mm 4 mps 760 mmHg 78%
20:00 +26°C° 0 mm 4 mps 760 mmHg 79%
21:00 +26°C° 0 mm 4 mps 760 mmHg 81%
22:00 +26°C° 0 mm 4 mps 761 mmHg 82%
23:00 +25°C° 0 mm 4 mps 761 mmHg 83%

Day after tomorrow, 15 July, Wednesday

Time Temperature Precipitation Wind Pressure Humidity
00:00 +25°C° 0 mm 4 mps 761 mmHg 84%
01:00 +25°C° 0 mm 4 mps 761 mmHg 85%
02:00 +25°C° 0.2 mm 4 mps 760 mmHg 85%
03:00 +23°C° 0.2 mm 4 mps 760 mmHg 84%
04:00 +23°C° 0.2 mm 4 mps 760 mmHg 84%
05:00 +23°C° 0 mm 4 mps 760 mmHg 84%
06:00 +23°C° 0 mm 4 mps 760 mmHg 85%
07:00 +23°C° 0 mm 4 mps 760 mmHg 85%
08:00 +25°C° 0 mm 5 mps 761 mmHg 81%
09:00 +27°C° 0 mm 5 mps 761 mmHg 76%
10:00 +28°C° 0 mm 6 mps 761 mmHg 72%
11:00 +28°C° 0.2 mm 6 mps 761 mmHg 73%
12:00 +29°C° 0.2 mm 6 mps 761 mmHg 74%
13:00 +29°C° 0.2 mm 7 mps 761 mmHg 75%
14:00 +28°C° 0.2 mm 7 mps 760 mmHg 77%
15:00 +28°C° 0.2 mm 6 mps 760 mmHg 79%
16:00 +27°C° 0.2 mm 6 mps 759 mmHg 82%
17:00 +27°C° 0.2 mm 6 mps 759 mmHg 84%
18:00 +26°C° 0.2 mm 5 mps 760 mmHg 86%
19:00 +26°C° 0.2 mm 5 mps 760 mmHg 88%
20:00 +26°C° 0.1 mm 5 mps 760 mmHg 87%
21:00 +26°C° 0.1 mm 5 mps 760 mmHg 87%
22:00 +26°C° 0.1 mm 4 mps 761 mmHg 86%
23:00 +26°C° 0.6 mm 5 mps 761 mmHg 87%

16 July, Thursday

Time Temperature Precipitation Wind Pressure Humidity
00:00 +26°C° 0.6 mm 5 mps 760 mmHg 88%
01:00 +25°C° 0.6 mm 5 mps 760 mmHg 89%
02:00 +25°C° 0.5 mm 5 mps 760 mmHg 89%
03:00 +25°C° 0.5 mm 5 mps 760 mmHg 89%
04:00 +23°C° 0.5 mm 5 mps 759 mmHg 89%
05:00 +23°C° 0.3 mm 5 mps 760 mmHg 88%
06:00 +23°C° 0.3 mm 5 mps 760 mmHg 87%
07:00 +25°C° 0.3 mm 5 mps 760 mmHg 86%
08:00 +25°C° 0.2 mm 5 mps 761 mmHg 84%
09:00 +26°C° 0.2 mm 6 mps 761 mmHg 81%
10:00 +27°C° 0.2 mm 6 mps 761 mmHg 79%
11:00 +28°C° 0 mm 6 mps 761 mmHg 75%
12:00 +29°C° 0 mm 7 mps 761 mmHg 72%
13:00 +30°C° 0 mm 7 mps 761 mmHg 68%
14:00 +29°C° 0.2 mm 7 mps 760 mmHg 71%
15:00 +29°C° 0.2 mm 7 mps 760 mmHg 73%
16:00 +28°C° 0.2 mm 7 mps 760 mmHg 76%
17:00 +28°C° 0.3 mm 6 mps 760 mmHg 78%
18:00 +27°C° 0.3 mm 6 mps 760 mmHg 80%
19:00 +26°C° 0.3 mm 6 mps 760 mmHg 82%
20:00 +26°C° 0.1 mm 6 mps 761 mmHg 82%
21:00 +26°C° 0.1 mm 6 mps 761 mmHg 83%
22:00 +26°C° 0.1 mm 6 mps 761 mmHg 83%
23:00 +24°C° 0 mm 6 mps 761 mmHg 84%

17 July, Friday

Time Temperature Precipitation Wind Pressure Humidity
00:00 +24°C° 0 mm 6 mps 761 mmHg 85%
01:00 +25°C° 0 mm 5 mps 761 mmHg 86%
02:00 +23°C° 0.1 mm 5 mps 760 mmHg 86%
03:00 +23°C° 0.1 mm 5 mps 760 mmHg 87%
04:00 +23°C° 0.1 mm 5 mps 760 mmHg 88%
05:00 +23°C° 0 mm 5 mps 760 mmHg 87%
06:00 +22°C° 0 mm 5 mps 760 mmHg 87%
07:00 +22°C° 0 mm 5 mps 760 mmHg 86%
08:00 +25°C° 0 mm 5 mps 761 mmHg 80%
09:00 +27°C° 0 mm 6 mps 761 mmHg 73%
10:00 +28°C° 0 mm 6 mps 761 mmHg 66%
11:00 +29°C° 0 mm 6 mps 761 mmHg 63%
12:00 +29°C° 0 mm 6 mps 761 mmHg 60%
13:00 +30°C° 0 mm 6 mps 760 mmHg 56%
14:00 +30°C° 0 mm 6 mps 760 mmHg 58%
15:00 +30°C° 0 mm 6 mps 759 mmHg 59%
16:00 +30°C° 0 mm 6 mps 759 mmHg 61%
17:00 +28°C° 0 mm 6 mps 759 mmHg 66%
18:00 +27°C° 0 mm 6 mps 760 mmHg 72%
19:00 +26°C° 0 mm 5 mps 760 mmHg 78%
20:00 +26°C° 0 mm 5 mps 760 mmHg 79%
21:00 +24°C° 0 mm 6 mps 761 mmHg 80%
22:00 +24°C° 0 mm 6 mps 761 mmHg 82%
23:00 +24°C° 0 mm 6 mps 761 mmHg 83%

18 July, Saturday

Time Temperature Precipitation Wind Pressure Humidity
00:00 +25°C° 0 mm 5 mps 761 mmHg 84%
01:00 +25°C° 0 mm 5 mps 760 mmHg 85%
02:00 +23°C° 0 mm 5 mps 760 mmHg 86%
03:00 +23°C° 0 mm 5 mps 760 mmHg 86%
04:00 +23°C° 0 mm 5 mps 759 mmHg 87%
05:00 +23°C° 0 mm 4 mps 760 mmHg 87%
06:00 +23°C° 0 mm 4 mps 760 mmHg 87%
07:00 +23°C° 0 mm 4 mps 760 mmHg 87%
08:00 +25°C° 0 mm 5 mps 760 mmHg 81%
09:00 +27°C° 0 mm 6 mps 761 mmHg 75%
10:00 +29°C° 0 mm 6 mps 761 mmHg 70%
11:00 +30°C° 0 mm 6 mps 761 mmHg 67%
12:00 +30°C° 0 mm 7 mps 760 mmHg 64%
13:00 +32°C° 0 mm 7 mps 760 mmHg 61%
14:00 +30°C° 0 mm 7 mps 759 mmHg 64%
15:00 +30°C° 0 mm 7 mps 759 mmHg 67%
16:00 +29°C° 0 mm 7 mps 759 mmHg 69%
17:00 +28°C° 0.1 mm 7 mps 759 mmHg 73%
18:00 +28°C° 0.1 mm 6 mps 759 mmHg 78%
19:00 +27°C° 0.1 mm 6 mps 760 mmHg 82%
20:00 +26°C° 0.4 mm 6 mps 760 mmHg 83%
21:00 +26°C° 0.4 mm 6 mps 760 mmHg 84%
22:00 +26°C° 0.4 mm 6 mps 761 mmHg 85%
23:00 +26°C° 0.4 mm 5 mps 761 mmHg 86%
Show more